User: anonymous   Login
Location: Boston
(42.3580°N, 71.0600°W)
Time: 12:49:59
(UTC-05:00)
Language:

SPROUT - Orbit

View from above orbital plane
View from above orbital plane
View from above satellite
View from above satellite

Ground track
Ground track

The orbit data is extracted from the following two-line orbital elements,

1 39770U 14029E   17322.19072179  .00000954  00000-0  11390-3 0  9998
2 39770  97.8758  60.1079 0009184 173.3755 186.7616 14.86529078189012
Epoch (UTC): 18 November 2017 04:34:38
Eccentricity: 0.0009184
inclination: 97.8758°
perigee height: 602 km
apogee height: 615 km
right ascension of ascending node: 60.1079°
argument of perigee: 173.3755°
revolutions per day: 14.86529078
mean anomaly at epoch: 186.7616°
orbit number at epoch: 18901

The dashed part of the orbit path shows where the satellite is in the earth's shadow,  

DLR